Change the Weather History Date:

Saturday, February 2, 2013

  Actual Average Record
Temperature  
Mean Temperature 49 °F -  
Max Temperature 68 °F 61 °F 76 °F (1963)
Min Temperature 30 °F 29 °F 15 °F (2011)
Degree Days  
Heating Degree Days 16    
Moisture  
Dew Point 22 °F    
Average Humidity 38    
Maximum Humidity 69    
Minimum Humidity 16    
Precipitation  
Precipitation 0.00 in - - ()
Sea Level Pressure  
Sea Level Pressure 30.21 in    
Wind  
Wind Speed 3 mph (SE)    
Max Wind Speed 10 mph    
Max Gust Speed -    
Visibility 10 miles    
Events      
Averages and records for this station are not official NWS values.
T = Trace of Precipitation, MM = Missing Value Source: NWS Daily Summary

Daily Weather History Graph

Daily Weather History Graph

Search for Another Location

Airport or City:

Trip Planner

Search our weather history database for the weather conditions in past years. The results will help you decide how hot, cold, wet, or windy it might be!

Date:

Astronomy

Feb. 02, 2013 Rise Set
Actual Time 7:12 AM MST 5:52 PM MST
Civil Twilight 6:46 AM MST 6:18 PM MST
Nautical Twilight 6:17 AM MST 6:47 PM MST
Astronomical Twilight 5:48 AM MST 7:16 PM MST
Moon No Moon Rise 10:50 AM MST (2/2)
Length of Visible Light 11h 31m
Length of Day
10h 39m
Waning Gibbous, 59% of the Moon is Illuminated
Feb 2
Waning Gibbous
Feb 3
Last Quarter
Feb 10
New
Feb 17
First Quarter
Feb 25
Full

Hourly Weather History & Observations

Time (MST) Temp. Windchill Dew Point Humidity Pressure Visibility Wind Dir Wind Speed Gust Speed Precip Events Conditions
12:51 AM 37.9 °F - 23.0 °F 55% 30.20 in 10.0 mi Calm Calm - N/A   Clear
1:51 AM 39.0 °F - 23.0 °F 53% 30.21 in 10.0 mi Calm Calm - N/A   Clear
2:51 AM 37.0 °F - 21.9 °F 54% 30.22 in 10.0 mi Calm Calm - N/A   Clear
3:51 AM 36.0 °F - 21.9 °F 57% 30.22 in 10.0 mi Calm Calm - N/A   Clear
4:51 AM 34.0 °F - 21.9 °F 61% 30.22 in 10.0 mi Calm Calm - N/A   Clear
5:51 AM 32.0 °F 24.8 °F 21.9 °F 66% 30.23 in 10.0 mi SSE 8.1 mph - N/A   Clear
6:51 AM 30.9 °F - 21.9 °F 69% 30.27 in 10.0 mi Calm Calm - N/A   Clear
7:51 AM 34.0 °F - 21.9 °F 61% 30.30 in 10.0 mi Calm Calm - N/A   Clear
8:51 AM 42.1 °F 40.2 °F 24.1 °F 49% 30.31 in 10.0 mi SSE 3.5 mph - N/A   Clear
9:51 AM 50.0 °F - 24.1 °F 36% 30.30 in 10.0 mi South 4.6 mph - N/A   Clear
10:51 AM 57.0 °F - 21.9 °F 26% 30.29 in 10.0 mi SSE 5.8 mph - N/A   Clear
11:51 AM 59.0 °F - 21.9 °F 24% 30.27 in 10.0 mi SSE 8.1 mph - N/A   Clear
12:51 PM 63.0 °F - 21.9 °F 21% 30.22 in 10.0 mi Variable 6.9 mph - N/A   Clear
1:51 PM 64.9 °F - 21.9 °F 19% 30.18 in 10.0 mi SSE 8.1 mph - N/A   Clear
2:51 PM 66.0 °F - 21.9 °F 19% 30.16 in 10.0 mi SE 4.6 mph - N/A   Clear
3:51 PM 66.9 °F - 21.0 °F 17% 30.14 in 10.0 mi South 4.6 mph - N/A   Clear
4:51 PM 68.0 °F - 19.9 °F 16% 30.14 in 10.0 mi Calm Calm - N/A   Clear
5:51 PM 62.1 °F - 21.9 °F 21% 30.15 in 10.0 mi ENE 3.5 mph - N/A   Clear
6:51 PM 54.0 °F - 24.1 °F 31% 30.17 in 10.0 mi NE 5.8 mph - N/A   Clear
7:51 PM 51.1 °F - 23.0 °F 33% 30.19 in 10.0 mi East 6.9 mph - N/A   Clear
8:51 PM 48.9 °F - 21.0 °F 33% 30.18 in 10.0 mi ENE 9.2 mph - N/A   Clear
9:51 PM 54.0 °F - 19.9 °F 26% 30.16 in 10.0 mi East 10.4 mph - N/A   Clear
10:51 PM 52.0 °F - 19.9 °F 28% 30.15 in 10.0 mi SE 6.9 mph - N/A   Clear
11:51 PM 52.0 °F - 21.0 °F 30% 30.14 in 10.0 mi East 9.2 mph - N/A   Clear